Regional Weather Roundup
Issued by NWS

Home | Current Version | Previous Version | Text Only | Print | Product List | Glossary On
Versions: 1 2 3 4 5 6 7 8 9 10 11 12 13 14 15 16 17 18 19 20 21 22 23 24 25 26 27 28 29 30 31 32 33 34 35 36 37 38 39 40 41 42 43 44 45 46 47 48 49 50
000
ASUS44 KOUN 231610
RWROK

WEATHER ROUNDUP FOR OKLAHOMA
NATIONAL WEATHER SERVICE NORMAN OK
1100 AM CDT SAT MAY 23 2015

NOTE: "FAIR" INDICATES FEW OR NO CLOUDS BELOW 12,000 FEET WITH NO
      SIGNIFICANT WEATHER AND/OR OBSTRUCTIONS TO VISIBILITY.

OKZ001>007-009>012-014-015-017-231700-
NORTHWEST OKLAHOMA AND THE PANHANDLE

CITY           SKY/WX    TMP DP  RH WIND       PRES   REMARKS
GAGE           LGT RAIN  56  56 100 N15G22    30.05F FOG
GUYMON         CLOUDY    57  55  93 E12       29.98S
ENID/WOODRING  CLOUDY    64  64 100 SE14      30.07F FOG
$$

OKZ016-021>023-033>039-044-045-231700-
SOUTHWEST OKLAHOMA

CITY           SKY/WX    TMP DP  RH WIND       PRES   REMARKS
LAWTON/REGL    CLOUDY    70  68  93 SE21G28   30.00F FOG
LAWTON/FT SILL CLOUDY    68  68 100 SE21G29   29.99F FOG
FREDERICK      CLOUDY    71  69  93 S22G28    29.97F
CLINTON        LGT RAIN  68  66  93 S23G36    29.99S VSB 1
HOBART         LGT RAIN  68  67  96 S23G35    29.98F FOG
ALTUS AFB      CLOUDY    70  70 100 S24G31    29.95F
$$

OKZ018>020-024>031-231700-
CENTRAL OKLAHOMA

CITY           SKY/WX    TMP DP  RH WIND       PRES   REMARKS
OKLAHOMA CITY  FOG       65  64  97 SE17      30.05F VSB 1/2
OKC/WILEY POST CLOUDY    66  64  93 SE18G29   30.05F FOG
OKC/TINKER AFB CLOUDY    63  63  97 SE12      30.06F FOG
STILLWATER     CLOUDY    64  61  90 SE13      30.10F
GUTHRIE        CLOUDY    65  63  93 SE12G21   30.07F FOG
$$

OKZ008-013-054>072-231700-
NORTHEAST OKLAHOMA

CITY           SKY/WX    TMP DP  RH WIND       PRES   REMARKS
TULSA          CLOUDY    65  61  87 SE14      30.14F
TULSA/JONES    CLOUDY    65  60  84 SE9       30.14F
PONCA CITY     CLOUDY    62  61  96 SE12      30.11F FOG
BARTLESVILLE   LGT RAIN  62  61  96 SE10      30.17F
MUSKOGEE       CLOUDY    67  60  78 SE13      30.18F
$$

OKZ032-040>043-046>053-073>077-231700-
SOUTH CENTRAL/SOUTHEAST OKLAHOMA

CITY           SKY/WX    TMP DP  RH WIND       PRES   REMARKS
ARDMORE/DWNTWN CLOUDY    68  66  94 SE8       30.09F FOG
MCALESTER      CLOUDY    67  61  81 SE9G17    30.16F
$$




USA.gov is the U.S. government's official web portal to all federal, state and local government web resources and services.